Regional Weather Roundup
Issued by NWS

Home | Current Version | Previous Version | Graphics & Text | Print | Product List | Glossary Off
Versions: 1 2 3 4 5 6 7 8 9 10 11 12 13 14 15 16 17 18 19 20 21 22 23 24 25 26 27 28 29 30 31 32 33 34 35 36 37 38 39 40 41 42 43 44 45 46 47 48 49 50

000
ASUS45 KBOU 181907
RWRCO

WEATHER ROUNDUP FOR COLORADO
NATIONAL WEATHER SERVICE DENVER/BOULDER CO
1200 PM MST WED JAN 18 2017

NOTE: "FAIR" INDICATES FEW OR NO CLOUDS BELOW 12000 FEET WITH NO
SIGNIFICANT WEATHER AND/OR OBSTRUCTIONS TO VISIBILITY.

COZ001>005-013-030-031-182000-
...NORTHWEST COLORADO...

CITY           SKY/WX    TMP DP  RH WIND       PRES   REMARKS
CRAIG          FOG       11   8  88 CALM      30.12F VSB 1/4
HAYDEN         FAIR      14  10  85 S3        30.09F
MEEKER         FAIR      23  16  74 CALM      30.09F
MOUNT WERNER   NOT AVBL
STEAMBOAT SPGS FAIR      18  15  88 CALM      30.08F
WALDEN           N/A    N/A N/A N/A CALM      30.06F
$$

COZ006>008-011-182000-
...WEST CENTRAL VALLEYS...

CITY           SKY/WX    TMP DP  RH WIND       PRES   REMARKS
GRAND JUNCTION PTSUNNY   37  28  70 NW6       30.12F
MONTROSE       FAIR      39  25  57 SE3       30.11F
EAGLE          CLOUDY    36  19  51 CALM      30.13F
RIFLE          FAIR      37  23  56 W3        30.10F
DELTA          FAIR      44  29  56 CALM      30.11F
NUCLA          FAIR      37  27  65 CALM      30.14F
$$

COZ017>023-064>068-182000-
...SOUTHWEST COLORADO...

CITY           SKY/WX    TMP DP  RH WIND       PRES   REMARKS
DURANGO        CLOUDY    37  25  61 CALM      30.06F
CORTEZ         CLOUDY    37  29  72 NW12      30.11F
PAGOSA SPRINGS CLOUDY    35  27  73 SW5       30.06F WCI  31
TELLURIDE      FAIR      31  19  60 W7        30.10F WCI  24
WOLF CREEK PAS CLOUDY    18  18 100 SW5       30.09F WCI  11
$$

COZ009-010-012-014-032>034-037-058>063-182000-
...CENTRAL COLORADO...

CITY           SKY/WX    TMP DP  RH WIND       PRES   REMARKS
ASPEN          FAIR      30  15  53 CALM      30.06F
BUENA VISTA    FAIR      24  11  58 W7        29.98F WCI  16
COPPER MTN     NOT AVBL
BERTHOUD PASS  NOT AVBL
COTTONWOOD PAS FAIR      34  14  44 CALM      29.98F
GUNNISON       CLOUDY    25  17  72 SE5       30.10F WCI  19
KREMMLING      CLOUDY    23  18  80 CALM      30.12F
LEADVILLE      FAIR      33   7  33 NW13      29.98F WCI  24
MONARCH PASS   FAIR      23  12  63 MISG      30.13F
SALIDA         FAIR      36  20  52 NW8       30.05F
SUNLIGHT       FAIR      23  16  74 CALM      30.10F HAZE
WILKERSON PASS FAIR      34 -15  12 NE8       30.02F WCI  27
$$

COZ069>075-182000-
...SAN LUIS VALLEY/SANGRE DE CRISTO MOUNTAINS...

CITY           SKY/WX    TMP DP  RH WIND       PRES   REMARKS
ALAMOSA        CLOUDY    27  23  85 CALM      30.05F
LA VETA PASS   FOG       23  21  93 NE30      29.97F VSB 1   WCI   5
SAGUACHE       FAIR      30  18  59 CALM      30.05F
$$

COZ035-036-038>040-182000-
...NORTHERN COLORADO FRONT RANGE...

CITY           SKY/WX    TMP DP  RH WIND       PRES   REMARKS
DENVER INTL AP FAIR      46  16  30 S6        29.85F
DMNS CITY PARK   N/A     50   9  18 S5        29.84F
AURORA         MOSUNNY   48  16  27 S6        29.86F
FRONT RANGE AP MOSUNNY   48  21  34 S5        29.87F
ERIE MUNI ARPT FAIR      47  14  26 CALM      29.85F
BOULDER MUN AP FAIR      46  18  31 CALM      29.84F
CENTENNIAL     FAIR      48  12  23 CALM      29.86F
BROOMFIELD     MOSUNNY   45  18  33 VRB3      29.86F
FORT COLLINS   FAIR      46  12  25 SW6       29.84F
LONGMONT       FAIR      52  17  24 CALM      29.86F
$$

COZ041-046-047-076>085-087-088-182000-
...PIKES PEAK/PALMER DIVIDE AND SOUTHERN FOOTHILLS...

CITY           SKY/WX    TMP DP  RH WIND       PRES   REMARKS
COLO. SPRINGS  PTSUNNY   54  -8   7 CALM      29.88F
A. F. ACADEMY  FAIR      52  -4   9 NE8       29.86F
SCHRIEVER AFB  NOT AVBL
ELLICOTT       FAIR     N/A N/A N/A E9G17     29.87F
FALCON         FAIR      48  -1  13 E6        29.90F
FORT CARSON    NOT AVBL
LIMON          FAIR      47  16  29 CALM      29.87F
MONUMENT HILL  FAIR      43   9  24 CALM      29.91F
TRINIDAD       FAIR      38  26  62 E5        29.89F
$$

COZ042>045-048>051-090-091-182000-
...NORTHEAST COLORADO...

CITY           SKY/WX    TMP DP  RH WIND       PRES   REMARKS
GREELEY ARPT   NOT AVBL
AKRON          FAIR      39  24  55 W10       29.86F
BURLINGTON     FAIR      43  27  53 NW7       29.88F
WRAY           FAIR      43  30  61 W3        29.88F
STERLING       FAIR      36  30  80 SW8       29.84F
HOLYOKE        FAIR      45  32  61 S9        29.86F
FORT MORGAN    FAIR      39  25  58 W6        29.86F
$$

COZ086-089-092>099-182000-
...SOUTHEAST COLORADO...

CITY           SKY/WX    TMP DP  RH WIND       PRES   REMARKS
PUEBLO         FAIR      49  28  44 CALM      29.86F
LA JUNTA       FAIR      33  28  81 CALM      29.90F
LAMAR          FAIR      31  27  85 SW6       29.90F WCI  25
SPRINGFIELD      N/A     45  37  73 S9        29.89F
$$



USA.gov is the U.S. government's official web portal to all federal, state and local government web resources and services.